Location: Mannried
(46.5667°N, 7.3878°E)
Time: 10:44:58
(UTC+00:00)

Daily predictions for brighter satellites

Satellite Brightness Start Highest point End
(mag) Time Altitude Azimuth Time Altitude Azimuth Time Altitude Azimuth
Okean O Rocket 3.4 16:13:24 10° E 16:15:14 12° ENE 16:17:06 10° NNE
USA 267 3.4 16:14:44 10° NE 16:21:19 75° SE 16:27:50 10° SW
H-2A R/B 2.9 16:19:35 10° ESE 16:23:53 27° ENE 16:28:06 10° N
SJ 16-02 3.6 16:21:34 10° NW 16:25:23 30° W 16:29:12 10° SSW
Cosmos 1763 Rocket 3.5 16:22:06 10° S 16:27:06 63° ESE 16:32:09 10° NNE
CZ-4B R/B 2.8 16:24:03 10° SSE 16:28:07 82° ENE 16:31:59 10° NNW
USA 305 4.0 16:25:17 10° WNW 16:29:03 30° N 16:32:46 10° ENE
USA 276 3.3 16:26:07 10° WNW 16:29:07 44° SSW 16:32:06 10° SE
Cosmos 1656 4.1 16:25:40 10° NNW 16:31:11 68° WSW 16:36:44 10° SSE
Cosmos 1933 3.7 16:29:24 10° SSE 16:33:13 42° E 16:37:03 10° NNE
Cosmos 841 Rocket 4.2 16:29:06 10° SSE 16:33:38 32° ESE 16:38:10 10° NE
PSLV R/B 4.4 16:31:05 10° SE 16:34:21 31° ENE 16:37:40 10° N
Cosmos 1464 Rocket 4.4 16:28:52 10° SSW 16:35:13 72° W 16:41:38 10° N
USA 229 DEB 4.0 16:28:46 10° NW 16:36:08 86° NE 16:43:58 10° SE
USA 229 4.0 16:28:52 10° NW 16:36:14 85° NE 16:44:03 10° SE
Cosmos 1937 Rocket 3.6 16:32:17 10° NNW 16:37:33 56° ENE 16:42:46 10° SE
Cosmos 1500 Rocket 3.5 16:35:53 10° N 16:40:21 86° E 16:44:46 10° S
Cosmos 1666 4.0 16:37:55 10° NNE 16:40:34 18° ENE 16:43:12 10° ESE
Nadezhda 4 Rocket 4.2 16:35:52 10° N 16:42:12 79° W 16:48:31 10° S
SL-24 R/B - RUBIN 2 3.9 16:38:34 10° NNW 16:42:58 43° NE 16:47:06 10° ESE
ATLAS 2AS CENTAUR R/B 4.4 16:37:55 10° WNW 16:43:49 23° NNW 16:49:31 10° NE
Cosmos 2322 Rocket 3.8 16:40:59 10° N 16:44:06 15° NE 16:45:58 13° ENE
Cosmos 990 Rocket 4.3 16:39:18 10° NNW 16:44:29 72° WSW 16:49:37 10° SSE
FengYun 1-2 T 4.3 16:40:08 10° SSE 16:45:44 90° WSW 16:51:20 10° NNW
Cosmos 1697 Rocket 2.6 16:41:14 10° NNW 16:46:53 83° ENE 16:52:30 10° SSE
Cosmos 372 Rocket 4.3 16:43:42 10° NNW 16:48:45 46° ENE 16:53:46 10° SE
NOAA 6 4.0 16:44:00 10° SSE 16:49:08 80° ENE 16:54:17 10° NNW
Sich 1 3.1 16:45:54 10° N 16:50:06 50° ENE 16:54:17 10° SSE
Cosmos 1980 Rocket 2.4 16:45:39 10° NNW 16:51:10 50° ENE 16:56:38 10° SE
Cosmos 2221 3.8 16:47:30 10° SSW 16:51:33 41° WNW 16:55:38 10° N
Cosmos 1805 Rocket 3.4 16:47:46 10° N 16:52:06 68° E 16:56:25 10° SSE
Cosmos 2369 3.7 16:47:25 10° NNW 16:53:09 64° ENE 16:58:49 10° SE
USA 234 3.3 16:48:32 10° SE 16:55:06 89° NE 17:01:40 10° NW
CZ-4C R/B 3.1 16:50:40 10° NW 16:57:32 53° NE 17:05:36 10° ESE
Cosmos 1092 Rocket 4.0 16:51:45 10° N 16:58:09 83° E 17:04:28 10° S
NOSS 3-1 (A) 4.5 16:52:12 10° NW 16:59:43 70° SW 17:08:28 10° SSE
Cosmos 1812 3.4 16:56:49 10° SSE 17:00:15 31° E 17:02:42 16° NE
Cosmos 1428 Rocket 4.4 16:54:43 10° N 17:00:52 77° E 17:07:02 10° SSE
USA 306 4.0 16:57:43 10° WNW 17:01:29 29° N 17:03:42 19° NE
SL-16 R/B 3.4 16:57:56 10° N 17:02:19 22° NE 17:04:16 19° ENE
ISS -3.7 16:59:34 10° WNW 17:02:57 64° NNE 17:04:58 22° E
Meteor 1-25 Rocket 4.4 16:58:15 10° NNW 17:03:49 77° W 17:09:25 10° S
deb Chang Zheng 4 4.0 17:00:39 10° SE 17:04:37 37° ENE 17:08:37 10° N
SMAP 3.3 17:00:31 10° S 17:05:10 72° WSW 17:09:50 10° NNW
MOS 1-B Rocket 4.3 16:59:23 10° NNE 17:05:10 51° E 17:11:42 10° S
NOSS 2-2 (D) 4.3 17:00:07 10° NW 17:05:14 71° NE 17:12:26 10° SE
NOSS 2-2 (E) 4.4 17:00:17 10° NW 17:05:35 84° NE 17:13:06 10° SE
Cosmos 2082 Rocket 2.4 17:00:37 10° S 17:06:05 52° ESE 17:10:43 15° NE
Cosmos 1939 Rocket 3.5 17:02:22 10° S 17:06:26 59° W 17:10:29 10° NNW
CORIOLIS 4.3 17:02:42 10° SSE 17:08:06 81° WSW 17:13:34 10° NNW
Cosmos 44 Rocket 4.0 17:07:56 10° NNW 17:12:25 32° NE 17:14:23 24° E
Cosmos 2333 Rocket 4.2 17:11:40 10° NNE 17:12:25 10° NNE 17:12:25 10° NNE
CZ-4B DEB 4.3 17:08:56 10° SSE 17:14:28 83° WSW 17:20:00 10° NNW
Meteor 2-16 Rocket 4.5 17:08:42 10° N 17:14:43 55° ENE 17:20:42 10° SSE
Cosmos 2278 3.7 17:11:33 10° NNW 17:17:12 57° ENE 17:22:48 10° SE
Cosmos 1602 4.3 17:13:28 10° NNW 17:17:16 59° W 17:21:05 10° S
Cosmos 2142 Rocket 4.5 17:12:16 10° S 17:18:15 58° E 17:24:21 10° NNE
USA 307 4.0 17:16:32 10° WNW 17:20:20 30° N 17:21:44 25° NE
Cosmos 540 Rocket 3.5 17:15:58 10° SSW 17:21:04 78° WNW 17:26:07 10° NNE
ARGOS 3.2 17:19:22 10° SSE 17:24:38 55° ENE 17:29:55 10° N
Cosmos 1570 Rocket 4.2 17:20:45 10° S 17:25:46 49° ESE 17:28:35 24° NE
Cosmos 2279 Rocket 3.9 17:19:44 10° S 17:25:50 63° E 17:31:58 10° NNE
COSMO-SKYMED 1 2.7 17:23:24 20° NNE 17:26:14 51° E 17:30:28 10° S
COSMOS 2406 3.5 17:21:06 10° SW 17:26:50 71° WNW 17:32:09 12° NNE
Cosmos 1833 Rocket 3.3 17:22:42 10° SW 17:28:12 55° WNW 17:33:42 10° NNE
Cosmos 1782 3.1 17:25:21 10° SSW 17:29:19 67° W 17:33:18 10° N
Cosmos 2266 Rocket 4.4 17:24:02 10° N 17:30:02 41° ENE 17:36:02 10° SE
Cosmos 1814 Rocket 4.0 17:25:26 10° S 17:30:35 61° ESE 17:33:44 23° NE
ATLAS 5 CENTAUR R/B 2.5 17:25:37 10° NW 17:32:32 38° NNE 17:33:07 36° NE
Cosmos 921 Rocket 4.1 17:30:14 10° SSE 17:32:43 25° SE 17:32:43 25° SE
Cosmos 1633 Rocket 2.9 17:30:55 10° N 17:35:18 69° E 17:39:40 10° SSE
Cosmos 1818 3.7 17:31:13 10° NNW 17:36:35 51° NE 17:38:50 32° ESE
YAOGAN 1 4.2 17:39:35 19° NNE 17:39:35 19° NNE 17:41:02 10° N
Cosmos 2219 Rocket 4.3 17:35:57 10° NNE 17:36:27 11° NNE 17:36:27 11° NNE
GEOS 3 Rocket 3.9 17:37:58 34° E 17:39:34 44° NE 17:44:29 10° NNW
CZ-2D R/B 4.1 17:36:12 10° S 17:39:55 51° W 17:43:40 10° NNW
Meteor 2-6 Rocket 4.2 17:35:06 10° S 17:40:45 60° E 17:45:14 16° NNE
SJ-11-01 4.2 17:37:51 10° SSE 17:42:36 78° ENE 17:47:21 10° N
Cosmos 1634 Rocket 4.4 17:36:36 10° SSW 17:42:52 66° W 17:49:12 10° N
USA 308 3.8 17:39:04 10° NW 17:42:55 32° N 17:43:13 31° NNE
COSMOS 2455 2.9 17:38:10 10° SW 17:44:11 77° NW 17:48:14 22° NNE
CZ-2C R/B 2.4 17:40:36 11° NNE 17:45:40 80° ESE 17:50:50 10° S
CZ-4B R/B 3.2 17:41:24 10° SSE 17:46:50 81° WSW 17:52:12 10° NNW
Cosmos 1151 Rocket 3.0 17:44:00 10° S 17:48:18 81° W 17:51:27 19° N
SKYMED 3 4.5 17:47:47 24° NNE 17:50:23 89° WNW 17:54:44 10° SSW
Okean O Rocket 1.6 17:46:27 10° SSE 17:50:54 88° WSW 17:55:24 10° NNW
Lacrosse 5 rocket 1.7 17:47:13 10° NW 17:50:36 45° N 17:50:36 45° N
Meteor 2-15 4.3 17:52:07 10° S 17:58:10 68° E 18:03:28 14° NNE
Cosmos 2208 Rocket 3.9 17:54:23 10° SSW 17:59:45 77° ESE 18:01:39 42° NNE
Cosmos 1666 Rocket 4.3 17:56:44 10° NNW 18:01:05 52° W 18:05:21 10° S
Meteor 1-10 Rocket 4.1 17:56:54 10° S 18:02:37 66° E 18:04:52 37° NNE
H-2A R/B 3.2 17:58:13 10° S 18:03:07 43° W 18:07:57 10° NNW
Meteor 1-11 Rocket 3.7 17:57:45 10° N 18:03:18 58° ENE 18:05:46 33° SE
USA 267 3.8 18:01:03 29° NE 18:04:08 49° NNW 18:10:21 10° W
Cosmos 1470 Rocket 3.4 17:59:54 10° N 18:04:23 82° E 18:08:51 10° S
Cosmos 2150 Rocket 3.9 17:59:32 10° NNW 18:04:41 62° ENE 18:04:48 62° ENE
Cosmos 1328 Rocket 3.7 18:01:25 10° SSW 18:05:51 76° W 18:07:30 38° N
Cosmos 1655 Rocket 3.9 18:00:05 10° N 18:06:31 77° E 18:12:52 10° SSE
Landsat 5 3.4 18:08:42 80° WNW 18:08:45 80° WNW 18:12:44 10° SSW
Cosmos 2360 Rocket 3.5 18:04:17 10° N 18:07:10 24° NNE 18:07:10 24° NNE
USA 305 4.0 18:05:43 10° NW 18:08:46 33° NNW 18:08:46 33° NNW
SKYMED 2 4.3 18:12:00 25° N 18:14:18 51° WNW 18:18:30 10° SSW
Cosmos 1666 4.3 18:12:49 10° NNW 18:16:11 33° W 18:19:32 10° SSW
Feng Yun 1-1 Rocket 4.3 18:10:19 10° SSE 18:16:15 86° WSW 18:22:09 10° NNW
ATLAS CENTAUR R/B 3.2 18:13:08 10° W 18:20:03 37° NW 18:20:42 35° NNW
Cosmos 1125 Rocket 3.5 18:17:32 10° NNW 18:22:14 70° N 18:22:14 70° N
Cosmos 2322 Rocket 2.8 18:23:42 10° NNW 18:27:49 45° N 18:27:49 45° N
Cosmos 1980 Rocket 4.1 18:30:09 10° NW 18:34:53 28° WSW 18:39:35 10° SSW
ATLAS 2AS CENTAUR R/B 4.2 18:31:46 10° NW 18:37:27 23° NNE 18:37:27 23° NNE
ISS -0.9 18:36:41 10° W 18:37:58 18° W 18:37:58 18° W
CZ-4C R/B 3.8 18:39:13 10° NW 18:46:19 50° WSW 18:54:25 10° S
SL-16 R/B 2.5 18:41:22 10° NNW 18:46:11 63° NW 18:46:11 63° NW
Cosmos 2082 Rocket 3.8 18:45:29 10° WSW 18:50:27 30° NW 18:52:35 24° NNW
Cosmos 44 Rocket 4.5 18:49:25 10° NW 18:53:10 40° W 18:53:10 40° W
Cosmos 2333 Rocket 4.3 18:53:11 10° NNW 18:54:27 16° N 18:54:27 16° N
